sat.trackr.live / text

‹ back to catalog

STARLINK-2615

NORAD 48678 · 2021-044AS

PAYLOAD ACTIVE UNKNOWN

§ Identity

Operator
Country
US
Launch date
2021-05-26
Launch site
AFETR
Launch vehicle
Mass (kg)
RCS (m²)

Purposes: comms

External: N2YO · Heavens-Above · Gunter

§ Orbital elements

Epoch: 2026-09-19T18:07:46.567776Z

Period
94.01 min
Inclination
53.1583°
Eccentricity
0.0001016
Mean motion
15.31703907 rev/d
Perigee alt
470.0 km
Apogee alt
471.4 km
Semi-major
6,848.9 km
B*
-1.6209e-6
RAAN
280.6454°
Arg perigee
93.9474°
Mean anomaly
266.1643°
Rev number
29,370

§ Raw data

STARLINK-26151 48678U 21044AS  26262.75540009 -.00000415  00000+0 -16209-5 0  99962 48678  53.1583 280.6454 0001016  93.9474 266.1643 15.31703907293708

JSON: /api/v1/satellites/48678 · /tle

For live sub-satellite position, see the globe view (requires WebGL).

§ Visibility from observer

Set your observer location to see the next 7 days of passes ≥ 10°. The values pass through the URL so the page stays shareable.

No JS? Fill the form by hand. The geolocation button needs JavaScript.